Previsão horária em Julinki

Hoje, 18 Junho, Sexta-feira

Tempo Temperatura Precipitação Vento Pressão Humidade
00:00 +18°C° 0 mm 3 m/s 755 mmHg 74%
01:00 +17°C° 0 mm 3 m/s 755 mmHg 74%
02:00 +17°C° 0 mm 3 m/s 755 mmHg 75%
03:00 +17°C° 0 mm 3 m/s 755 mmHg 76%
04:00 +16°C° 0 mm 3 m/s 755 mmHg 77%
05:00 +18°C° 0 mm 3 m/s 755 mmHg 74%
06:00 +20°C° 0 mm 3 m/s 755 mmHg 71%
07:00 +22°C° 0 mm 4 m/s 755 mmHg 67%
08:00 +23°C° 0 mm 4 m/s 754 mmHg 62%
09:00 +26°C° 0 mm 5 m/s 754 mmHg 58%
10:00 +28°C° 0 mm 5 m/s 754 mmHg 53%
11:00 +28°C° 0 mm 5 m/s 754 mmHg 50%
12:00 +29°C° 0 mm 5 m/s 754 mmHg 47%
13:00 +30°C° 0 mm 5 m/s 754 mmHg 44%
14:00 +30°C° 0 mm 4 m/s 754 mmHg 45%
15:00 +30°C° 0 mm 4 m/s 753 mmHg 47%
16:00 +30°C° 0 mm 4 m/s 753 mmHg 48%
17:00 +29°C° 0 mm 4 m/s 753 mmHg 56%
18:00 +27°C° 0 mm 3 m/s 753 mmHg 64%
19:00 +26°C° 0 mm 3 m/s 753 mmHg 72%
20:00 +24°C° 0 mm 3 m/s 753 mmHg 73%
21:00 +22°C° 0 mm 3 m/s 753 mmHg 75%
22:00 +21°C° 0 mm 3 m/s 753 mmHg 77%
23:00 +21°C° 0 mm 3 m/s 753 mmHg 79%

Amanhã, 19 Junho, Sábado

Tempo Temperatura Precipitação Vento Pressão Humidade
00:00 +20°C° 0 mm 3 m/s 753 mmHg 81%
01:00 +19°C° 0 mm 3 m/s 753 mmHg 83%
02:00 +19°C° 0 mm 3 m/s 753 mmHg 85%
03:00 +19°C° 0 mm 3 m/s 753 mmHg 86%
04:00 +18°C° 0 mm 3 m/s 753 mmHg 87%
05:00 +20°C° 0 mm 3 m/s 753 mmHg 82%
06:00 +21°C° 0 mm 4 m/s 753 mmHg 76%
07:00 +23°C° 0 mm 4 m/s 753 mmHg 70%
08:00 +25°C° 0 mm 4 m/s 753 mmHg 66%
09:00 +27°C° 0 mm 4 m/s 753 mmHg 61%
10:00 +28°C° 0 mm 4 m/s 753 mmHg 57%
11:00 +29°C° 0 mm 4 m/s 753 mmHg 55%
12:00 +30°C° 0 mm 4 m/s 752 mmHg 52%
13:00 +32°C° 0 mm 4 m/s 752 mmHg 50%
14:00 +32°C° 0 mm 4 m/s 752 mmHg 50%
15:00 +32°C° 0 mm 4 m/s 752 mmHg 50%
16:00 +32°C° 0 mm 4 m/s 751 mmHg 50%
17:00 +30°C° 0 mm 4 m/s 751 mmHg 57%
18:00 +28°C° 0 mm 4 m/s 751 mmHg 64%
19:00 +27°C° 0 mm 3 m/s 751 mmHg 71%
20:00 +25°C° 0 mm 3 m/s 751 mmHg 75%
21:00 +24°C° 0 mm 3 m/s 752 mmHg 79%
22:00 +22°C° 0 mm 3 m/s 752 mmHg 83%
23:00 +21°C° 0.1 mm 3 m/s 752 mmHg 86%

Depois de amanhã, 20 Junho, Domingo

Tempo Temperatura Precipitação Vento Pressão Humidade
00:00 +20°C° 0.1 mm 3 m/s 751 mmHg 88%
01:00 +20°C° 0.1 mm 3 m/s 751 mmHg 91%
02:00 +19°C° 0 mm 3 m/s 751 mmHg 91%
03:00 +19°C° 0 mm 3 m/s 751 mmHg 92%
04:00 +18°C° 0 mm 3 m/s 751 mmHg 92%
05:00 +20°C° 0 mm 3 m/s 751 mmHg 86%
06:00 +21°C° 0 mm 4 m/s 751 mmHg 81%
07:00 +23°C° 0 mm 4 m/s 751 mmHg 75%
08:00 +25°C° 0 mm 4 m/s 751 mmHg 69%
09:00 +26°C° 0 mm 4 m/s 751 mmHg 62%
10:00 +28°C° 0 mm 5 m/s 751 mmHg 55%
11:00 +28°C° 0 mm 5 m/s 750 mmHg 54%
12:00 +29°C° 0 mm 5 m/s 750 mmHg 52%
13:00 +29°C° 0 mm 6 m/s 750 mmHg 51%
14:00 +30°C° 0 mm 5 m/s 749 mmHg 51%
15:00 +30°C° 0 mm 5 m/s 749 mmHg 50%
16:00 +30°C° 0 mm 4 m/s 749 mmHg 50%
17:00 +28°C° 0 mm 4 m/s 748 mmHg 57%
18:00 +27°C° 0 mm 4 m/s 748 mmHg 64%
19:00 +26°C° 0 mm 4 m/s 748 mmHg 70%
20:00 +25°C° 0 mm 4 m/s 748 mmHg 73%
21:00 +23°C° 0 mm 4 m/s 748 mmHg 76%
22:00 +22°C° 0 mm 4 m/s 748 mmHg 79%
23:00 +21°C° 0 mm 3 m/s 748 mmHg 83%

21 Junho, Segunda-feira

Tempo Temperatura Precipitação Vento Pressão Humidade
00:00 +20°C° 0 mm 3 m/s 747 mmHg 87%
01:00 +20°C° 0 mm 3 m/s 747 mmHg 91%
02:00 +19°C° 0 mm 3 m/s 747 mmHg 92%
03:00 +19°C° 0 mm 3 m/s 747 mmHg 93%
04:00 +19°C° 0 mm 3 m/s 747 mmHg 93%
05:00 +20°C° 0 mm 4 m/s 747 mmHg 86%
06:00 +22°C° 0 mm 5 m/s 747 mmHg 79%
07:00 +23°C° 0 mm 6 m/s 747 mmHg 72%
08:00 +26°C° 0 mm 6 m/s 746 mmHg 67%
09:00 +27°C° 0 mm 6 m/s 746 mmHg 63%
10:00 +28°C° 0 mm 5 m/s 746 mmHg 58%
11:00 +29°C° 0 mm 5 m/s 746 mmHg 55%
12:00 +30°C° 0 mm 4 m/s 746 mmHg 52%
13:00 +30°C° 0 mm 4 m/s 745 mmHg 50%
14:00 +30°C° 0 mm 4 m/s 745 mmHg 49%
15:00 +32°C° 0 mm 4 m/s 745 mmHg 48%
16:00 +31°C° 0 mm 3 m/s 745 mmHg 48%
17:00 +29°C° 0.2 mm 3 m/s 745 mmHg 58%
18:00 +27°C° 0.2 mm 3 m/s 745 mmHg 68%
19:00 +25°C° 0.2 mm 3 m/s 745 mmHg 79%
20:00 +24°C° 0.2 mm 3 m/s 745 mmHg 82%
21:00 +22°C° 0.2 mm 3 m/s 745 mmHg 85%
22:00 +21°C° 0.2 mm 2 m/s 745 mmHg 88%
23:00 +21°C° 0.4 mm 2 m/s 745 mmHg 90%

22 Junho, Terça-feira

Tempo Temperatura Precipitação Vento Pressão Humidade
00:00 +20°C° 0.4 mm 2 m/s 745 mmHg 92%
01:00 +20°C° 0.4 mm 2 m/s 745 mmHg 94%
02:00 +19°C° 0.1 mm 2 m/s 746 mmHg 94%
03:00 +20°C° 0.1 mm 1 m/s 746 mmHg 94%
04:00 +20°C° 0.1 mm 1 m/s 746 mmHg 94%
05:00 +21°C° 0.2 mm 1 m/s 746 mmHg 90%
06:00 +21°C° 0.2 mm 2 m/s 747 mmHg 86%
07:00 +24°C° 0.2 mm 2 m/s 747 mmHg 83%
08:00 +25°C° 0 mm 2 m/s 747 mmHg 78%
09:00 +26°C° 0 mm 2 m/s 748 mmHg 73%
10:00 +27°C° 0 mm 2 m/s 748 mmHg 67%
11:00 +28°C° 0.1 mm 2 m/s 748 mmHg 66%
12:00 +28°C° 0.1 mm 2 m/s 748 mmHg 65%
13:00 +28°C° 0.1 mm 3 m/s 748 mmHg 63%
14:00 +28°C° 0.1 mm 2 m/s 748 mmHg 62%
15:00 +29°C° 0.1 mm 2 m/s 748 mmHg 60%
16:00 +29°C° 0.1 mm 2 m/s 748 mmHg 59%
17:00 +28°C° 0 mm 2 m/s 748 mmHg 64%
18:00 +27°C° 0 mm 2 m/s 748 mmHg 70%
19:00 +26°C° 0 mm 2 m/s 749 mmHg 75%
20:00 +25°C° 0 mm 2 m/s 749 mmHg 80%
21:00 +23°C° 0 mm 2 m/s 749 mmHg 85%
22:00 +21°C° 0 mm 3 m/s 749 mmHg 90%
23:00 +20°C° 0 mm 3 m/s 749 mmHg 91%

23 Junho, Quarta-feira

Tempo Temperatura Precipitação Vento Pressão Humidade
00:00 +20°C° 0 mm 3 m/s 749 mmHg 93%
01:00 +19°C° 0 mm 3 m/s 749 mmHg 94%
02:00 +19°C° 0 mm 3 m/s 750 mmHg 94%
03:00 +18°C° 0 mm 3 m/s 750 mmHg 93%
04:00 +17°C° 0 mm 3 m/s 750 mmHg 93%
05:00 +19°C° 0 mm 3 m/s 750 mmHg 88%
06:00 +20°C° 0 mm 3 m/s 750 mmHg 84%
07:00 +22°C° 0 mm 3 m/s 751 mmHg 80%
08:00 +24°C° 0.4 mm 3 m/s 751 mmHg 78%
09:00 +25°C° 0.4 mm 3 m/s 751 mmHg 76%
10:00 +25°C° 0.4 mm 3 m/s 751 mmHg 74%
11:00 +26°C° 0 mm 3 m/s 751 mmHg 71%
12:00 +27°C° 0 mm 3 m/s 751 mmHg 69%
13:00 +27°C° 0 mm 3 m/s 751 mmHg 66%
14:00 +28°C° 0.3 mm 3 m/s 751 mmHg 66%
15:00 +28°C° 0.3 mm 2 m/s 751 mmHg 66%
16:00 +28°C° 0.3 mm 2 m/s 751 mmHg 66%
17:00 +27°C° 0.2 mm 3 m/s 751 mmHg 71%
18:00 +26°C° 0.2 mm 3 m/s 751 mmHg 77%
19:00 +25°C° 0.2 mm 4 m/s 750 mmHg 82%
20:00 +22°C° 0.2 mm 4 m/s 750 mmHg 87%
21:00 +21°C° 0.2 mm 4 m/s 751 mmHg 91%
22:00 +20°C° 0.2 mm 4 m/s 751 mmHg 96%
23:00 +19°C° 0.1 mm 4 m/s 750 mmHg 96%
Mostrar mais

Necessitamos do seu Consentimento

A Meteoprog e os seus Fornecedores de Serviços podem armazenar e aceder a dados pessoais como cookies, identificadores do dispositivo ou outras tecnologias semelhantes existentes no seu dispositivo e processar estes dados para personalizar conteúdos e anúncios, assim como funcionalidades nas redes sociais e análise de tráfego.

  • Armazenar e/ou aceder a informações no seu dispositivo

    Os cookies, identificadores do dispositivo ou outras informações podem ser armazenados ou acedidos no seu dispositivo, para os fins acima indicados.

  • Anúncios e conteúdos personalizados, medição de anúncios e conteúdos, dados sobre o público-alvo e desenvolvimento de produtos

    Os anúncios e os conteúdos podem ser personalizados com base num perfil. Podem ser adicionados dados adicionais para uma maior personalização dos anúncios e dos conteúdos. A eficácia dos anúncios e dos conteúdos pode ser medida. Podem ser obtidas informações sobre o público que visualizou os anúncios e os conteúdos. Estes dados podem ser usados para desenvolver ou melhorar sistemas, softwares ou a experiência do utilizador.

Ao clicar em "Eu concordo”, permitirá o uso de cookies, identificadores do dispositivo e web beacons mencionados ou outras tecnologias semelhantes. As configurações do navegador do seu dispositivo podem ser alteradas.

Para certos fins, podem ser invocados interesses legítimos ao invés de consentimento. Pode ler mais informação sobre este assunto na nossa Política de Privacidade e Cookies.